This is the latest recevied weather packets stored in our database for station/object KC3AWA. If no packets are shown the sender has not sent any weather packets the latest 10 day(s).
| Time | Temp. | Humidity | Pressure | Rain* | Wind** | Luminosity | Snow |
|---|---|---|---|---|---|---|---|
| 1778088356 | 10° C | 82% | 1011.3 hPa | 0 mm | - | 402 W/m² | - |
| 1778088052 | 10° C | 81% | 1011.2 hPa | 0 mm | - | 100 W/m² | - |
| 1778087749 | 10° C | 82% | 1011 hPa | 0 mm | - | 82 W/m² | - |
| 1778087447 | 10° C | 81% | 1011.3 hPa | 0 mm | - | 89 W/m² | - |
| 1778087144 | 10° C | 79% | 1011.2 hPa | 0 mm | - | 133 W/m² | - |
| 1778086842 | 10.56° C | 78% | 1011.2 hPa | 0 mm | - | 153 W/m² | - |
| 1778086540 | 10.56° C | 79% | 1011 hPa | 0 mm | - | 126 W/m² | - |
| 1778086236 | 10.56° C | 77% | 1010.8 hPa | 0 mm | - | 133 W/m² | - |
| 1778085933 | 10.56° C | 77% | 1010.9 hPa | 0 mm | - | 296 W/m² | - |
| 1778085630 | 10.56° C | 77% | 1011 hPa | 0 mm | - | 226 W/m² | - |
| 1778085326 | 10.56° C | 78% | 1010.8 hPa | 0 mm | - | 302 W/m² | - |
| 1778085022 | 10.56° C | 81% | 1010.8 hPa | 0 mm | - | 245 W/m² | - |
| 1778084718 | 11.11° C | 79% | 1011 hPa | 0 mm | - | 146 W/m² | - |
| 1778084416 | 11.11° C | 78% | 1010.8 hPa | 0 mm | - | 224 W/m² | - |
| 1778084113 | 11.11° C | 79% | 1010.6 hPa | 0 mm | - | 301 W/m² | - |
| 1778083810 | 11.11° C | 81% | 1010.7 hPa | 0 mm | - | 310 W/m² | - |
| 1778083508 | 11.11° C | 81% | 1010.7 hPa | 0 mm | - | 377 W/m² | - |
| 1778083205 | 10.56° C | 84% | 1010.6 hPa | 0 mm | - | 512 W/m² | - |
| 1778082902 | 10.56° C | 84% | 1010.6 hPa | 0 mm | - | 285 W/m² | - |
| 1778081789 | 10.56° C | 86% | 1010.3 hPa | 0 mm | - | 430 W/m² | - |
| 1778081486 | 10.56° C | 88% | 1010.2 hPa | 0 mm | - | 441 W/m² | - |
| 1778081182 | 9.44° C | 90% | 1010.3 hPa | 0 mm | - | 437 W/m² | - |
| 1778080880 | 9.44° C | 92% | 1010.4 hPa | 0 mm | - | 405 W/m² | - |
| 1778080579 | 8.89° C | 91% | 1010.4 hPa | 0 mm | - | 186 W/m² | - |
| 1778080275 | 9.44° C | 92% | 1010.4 hPa | 0 mm | - | 114 W/m² | - |
* Rain latest hour (hover to see other rain measurements)
** Current wind speed in m/s (hover to see current wind gust speed)